Teterboro, NJ

6:47 AM EDT on July 25, 2017 (GMT -0400)
Teterboro

Weather History for KTEB - June, 2012

Change the Weather History Date:

Thursday, June 14, 2012

  Actual Average Record
Temperature  
Mean Temperature 70 °F -  
Max Temperature 78 °F 77 °F 93 °F (2005)
Min Temperature 62 °F 58 °F 50 °F (1980)
Cooling Degree Days 4    
Growing Degree Days 20 (Base 50)    
Moisture  
Dew Point 59 °F    
Average Humidity 73    
Maximum Humidity 94    
Minimum Humidity 50    
Precipitation  
Precipitation 0.00 in - - ()
Sea Level Pressure  
Sea Level Pressure 30.15 in    
Wind  
Wind Speed 4 mph (NE)    
Max Wind Speed 13 mph    
Max Gust Speed 17 mph    
Visibility 10 miles    
Events      
Averages and records for this station are not official NWS values.
T = Trace of Precipitation, MM = Missing Value Source: NWS Daily Summary

Daily Weather History Graph

Daily Weather History Graph

Search for Another Location

Airport or City:

Trip Planner

Search our weather history database for the weather conditions in past years. The results will help you decide how hot, cold, wet, or windy it might be!

Date:

Astronomy

Jun. 14, 2012 Rise Set
Actual Time 5:23 AM EDT 8:29 PM EDT
Civil Twilight 4:50 AM EDT 9:02 PM EDT
Nautical Twilight 4:07 AM EDT 9:45 PM EDT
Astronomical Twilight 3:17 AM EDT 10:36 PM EDT
Moon 2:06 AM EDT (6/14) 4:09 PM EDT (6/14)
Length of Visible Light 16h 12m
Length of Day
15h 05m
Waning Crescent, 21% of the Moon is Illuminated
Jun 14
Waning Crescent
Jun 19
New
Jun 26
First Quarter
Jul 3
Full
Jul 10
Last Quarter

Hourly Weather History & Observations

Time (EDT) Temp. Dew Point Humidity Pressure Visibility Wind Dir Wind Speed Gust Speed Precip Events Conditions
12:08 AM 66.2 °F 62.6 °F 88% 30.06 in 10.0 mi Calm Calm - N/A   Overcast
12:51 AM 66.0 °F 62.1 °F 87% 30.07 in 10.0 mi Calm Calm - N/A   Overcast
1:51 AM 66.0 °F 62.1 °F 87% 30.08 in 10.0 mi Calm Calm - N/A   Overcast
2:00 AM 66.2 °F 62.6 °F 88% 30.08 in 10.0 mi NNE 3.5 mph - N/A   Overcast
2:17 AM 64.4 °F 62.6 °F 94% 30.08 in 10.0 mi NNE 3.5 mph - N/A   Overcast
2:51 AM 64.9 °F 62.1 °F 90% 30.08 in 10.0 mi Calm Calm - N/A   Mostly Cloudy
3:40 AM 66.2 °F 62.6 °F 88% 30.09 in 10.0 mi NE 3.5 mph - N/A   Overcast
3:51 AM 66.0 °F 62.1 °F 87% 30.09 in 10.0 mi North 5.8 mph - N/A   Overcast
4:30 AM 64.4 °F 60.8 °F 88% 30.11 in 10.0 mi North 5.8 mph - N/A   Overcast
4:51 AM 64.0 °F 60.1 °F 87% 30.12 in 10.0 mi NNW 6.9 mph - N/A   Overcast
5:16 AM 62.6 °F 55.4 °F 77% 30.12 in 10.0 mi North 6.9 mph - N/A   Scattered Clouds
5:51 AM 62.1 °F 55.0 °F 78% 30.12 in 10.0 mi NNE 5.8 mph - N/A   Clear
6:51 AM 64.0 °F 55.0 °F 73% 30.14 in 10.0 mi North 6.9 mph - N/A   Clear
7:51 AM 66.2 °F 55.4 °F 68% 30.16 in 10.0 mi NNE 6.9 mph - N/A   Clear
8:51 AM 70.0 °F 57.0 °F 63% 30.18 in 10.0 mi NNE 5.8 mph - N/A   Clear
9:51 AM 73.0 °F 59.0 °F 61% 30.18 in 10.0 mi North 6.9 mph - N/A   Mostly Cloudy
10:10 AM 71.6 °F 57.2 °F 60% 30.18 in 10.0 mi North 8.1 mph - N/A   Mostly Cloudy
10:51 AM 71.6 °F 57.2 °F 60% 30.19 in 10.0 mi ENE 10.4 mph 16.1 mph N/A   Overcast
11:51 AM 73.9 °F 60.1 °F 62% 30.20 in 10.0 mi East 10.4 mph - N/A   Scattered Clouds
12:51 PM 75.9 °F 60.1 °F 58% 30.19 in 10.0 mi Variable 3.5 mph - N/A   Scattered Clouds
1:51 PM 75.9 °F 60.1 °F 58% 30.19 in 10.0 mi Variable 4.6 mph - N/A   Scattered Clouds
2:51 PM 77.0 °F 59.0 °F 54% 30.19 in 10.0 mi East 12.7 mph 17.3 mph N/A   Clear
3:51 PM 77.0 °F 57.9 °F 52% 30.18 in 10.0 mi East 10.4 mph 17.3 mph N/A   Clear
4:51 PM 75.9 °F 55.9 °F 50% 30.18 in 10.0 mi East 10.4 mph - N/A   Clear
5:51 PM 75.0 °F 57.0 °F 53% 30.19 in 10.0 mi East 9.2 mph 17.3 mph N/A   Clear
6:51 PM 73.9 °F 55.9 °F 53% 30.19 in 10.0 mi East 6.9 mph - N/A   Clear
7:51 PM 70.0 °F 62.1 °F 76% 30.21 in 10.0 mi SSW 10.4 mph - N/A   Clear
8:51 PM 68.0 °F 61.0 °F 78% 30.22 in 10.0 mi SW 9.2 mph - N/A   Mostly Cloudy
9:51 PM 66.2 °F 59.0 °F 78% 30.23 in 10.0 mi SW 6.9 mph - N/A   Partly Cloudy
10:51 PM 64.9 °F 59.0 °F 81% 30.24 in 10.0 mi SW 4.6 mph - N/A   Mostly Cloudy
11:51 PM 64.0 °F 59.0 °F 84% 30.24 in 10.0 mi Calm Calm - N/A   Clear